Location: Unspecified
(35.6961°N, 0.0000°E)
Time: 19:08:24
(UTC+00:00)

Vanguard 2 Rocket - Pass Details

Date: 28 May 2019
Orbit: 554 x 3326 km, 32.9° (Epoch: 16 June)

Event Time Altitude Azimuth Distance (km) Brightness Sun altitude
Rises 02:17:35 0° 215° (SW) 6,866 - -23.9°
Reaches altitude 10° 02:22:21 10° 209° (SSW) 6,062 - -23.4°
Exits shadow 02:28:39 24° 196° (SSW) 5,115 10.1 -22.6°
Maximum altitude 02:40:16 42° 146° (SSE) 4,131 10.0 -21.1°
Drops below altitude 10° 02:56:08 10° 84° (E) 5,463 11.5 -18.9°
Sets 03:00:05 0° 78° (ENE) 6,167 12.1 -18.4°
